Date,TemperatureHighF,TemperatureAvgF,TemperatureLowF,DewpointHighF,DewpointAvgF,DewpointLowF,HumidityHigh,HumidityAvg,HumidityLow,PressureMaxIn,PressureMinIn,WindSpeedMaxMPH,WindSpeedAvgMPH,GustSpeedMaxMPH,PrecipitationSumIn
2013-1-1,24.1,21.0,0.0,14.9,6.7,-99.9,69,54,56,30.11,29.92,12,1,12,0.00
2013-1-2,30.9,26.2,0.0,20.7,15.3,-10.6,78,61,60,30.02,29.91,8,0,8,0.00
2013-1-3,30.4,28.4,0.0,24.8,20.7,-9.3,83,72,62,29.97,29.84,28,2,28,0.02
2013-1-4,35.6,28.5,0.0,28.5,21.3,-6.3,80,74,64,30.02,29.78,26,11,35,0.00
2013-1-5,35.8,30.1,21.8,30.9,22.6,16.6,84,73,63,30.11,29.75,19,2,19,0.00
2013-1-6,35.2,31.2,27.5,28.7,23.6,18.3,80,73,67,30.16,29.71,21,1,21,0.00
2013-1-7,38.9,32.1,0.0,27.8,22.5,-9.0,75,68,57,30.17,29.81,32,11,37,0.00
2013-1-8,41.5,35.7,31.6,31.4,28.5,25.5,85,75,62,30.04,29.85,20,2,20,0.00
2013-1-9,39.1,37.0,34.0,31.9,27.5,23.3,76,68,58,30.32,29.70,29,8,29,0.00
2013-1-10,41.9,32.8,0.0,29.5,22.8,-10.6,89,68,44,30.45,29.99,14,0,14,0.00
2013-1-11,44.2,39.7,34.6,44.1,38.7,23.5,100,97,56,29.99,29.54,17,3,21,0.46
2013-1-12,51.6,43.7,35.0,48.2,37.6,25.7,100,80,57,29.84,29.50,32,9,33,0.00
2013-1-13,37.6,32.9,27.9,31.1,27.4,21.0,90,80,69,29.88,29.75,16,1,16,0.07
2013-1-14,27.9,22.3,0.0,21.0,12.6,-10.2,75,66,52,30.28,29.88,21,4,21,0.05
2013-1-15,27.6,23.8,15.6,19.5,12.6,-8.0,72,62,54,30.30,29.96,24,6,24,0.00
2013-1-16,30.4,27.5,23.5,27.8,20.4,12.5,93,75,63,29.96,29.55,32,7,32,0.29
2013-1-17,23.5,16.3,14.1,12.8,4.1,-3.5,73,58,43,30.25,29.90,22,4,22,0.00
2013-1-18,39.3,22.4,14.3,32.3,12.9,0.3,82,67,53,30.28,29.63,19,3,19,0.12
2013-1-19,40.2,35.4,26.6,35.6,30.8,22.5,91,83,74,29.71,29.33,24,4,24,0.35
2013-1-20,26.4,15.9,0.0,22.5,7.2,-11.3,85,68,57,30.07,29.41,33,5,33,0.07
2013-1-21,14.6,9.9,0.0,5.2,0.9,-6.6,75,67,53,30.00,29.87,25,2,25,0.07
2013-1-22,10.0,7.9,4.8,0.3,-1.9,-3.4,67,59,59,30.16,30.02,12,1,12,0.14
2013-1-23,15.2,12.3,0.0,9.2,3.8,-0.8,79,59,59,30.17,29.96,16,2,16,0.14
2013-1-24,12.6,7.1,-3.9,1.6,-2.1,-11.2,71,51,56,30.59,30.17,14,1,14,0.00
2013-1-25,21.3,15.7,7.7,13.2,7.7,-1.6,79,70,64,30.39,29.82,14,1,16,0.13
2013-1-26,25.8,20.7,15.1,18.3,12.6,6.8,76,71,56,30.31,29.90,3,0,3,0.05
2013-1-27,30.4,25.7,18.1,25.8,17.1,8.7,83,70,61,30.31,29.93,17,1,17,0.12
2013-1-28,39.5,32.3,0.0,33.2,27.1,-6.0,88,81,75,29.94,29.72,10,0,10,0.17
2013-1-29,48.8,32.8,0.0,48.5,30.8,0.0,100,82,75,29.89,29.36,13,2,13,0.69
2013-1-30,35.0,31.0,20.6,35.0,30.7,17.1,100,99,86,29.38,29.04,16,4,18,0.45
2013-1-31,21.8,18.2,0.0,18.0,13.2,-4.2,88,81,74,29.78,29.15,25,4,25,0.46
2013-2-1,17.7,15.2,11.6,12.2,8.6,4.0,81,75,70,30.05,29.78,21,5,21,0.07
2013-2-2,16.5,12.5,0.0,8.4,5.3,-6.6,76,70,70,30.01,29.88,10,1,10,0.03
2013-2-3,20.6,13.7,9.7,14.8,7.9,-4.9,86,78,60,29.93,29.74,16,1,16,0.16
2013-2-4,22.7,16.9,0.0,12.5,5.9,-6.6,75,61,52,29.90,29.77,11,1,11,0.04
2013-2-5,24.1,18.2,11.2,19.1,9.9,0.3,81,70,58,29.93,29.57,65,3,65,0.05
2013-2-6,28.4,21.2,0.0,19.9,11.2,0.0,75,64,55,30.16,29.93,14,0,14,0.05
2013-2-7,30.3,26.8,20.5,25.8,21.9,16.7,86,81,75,30.11,29.94,12,1,12,0.07
2013-2-8,23.2,19.4,11.7,17.6,13.3,3.8,86,77,70,30.33,30.01,14,3,14,0.00
2013-2-9,29.8,3.1,-9.3,99.9,0.6,-99.9,85,66,52,30.40,29.92,157,0,157,0.00
2013-2-10,37.6,24.6,0.0,31.6,14.5,0.0,92,65,57,30.12,29.40,12,1,12,0.20
2013-2-11,40.3,34.7,27.9,38.3,25.4,0.0,96,73,83,29.67,29.24,21,7,21,0.20
2013-2-12,29.0,27.3,25.7,23.7,19.6,17.6,84,73,69,29.88,29.65,21,3,21,0.00
2013-2-13,39.2,32.8,0.0,29.8,23.1,0.0,84,65,67,29.76,29.58,20,5,20,0.00
2013-2-14,38.2,33.6,24.1,33.2,29.5,18.6,98,85,79,29.76,29.50,24,2,24,0.20
2013-2-15,25.3,21.9,16.9,18.9,14.2,-10.2,80,72,61,30.06,29.76,16,2,16,0.03
2013-2-16,22.1,16.9,8.4,12.5,7.0,-2.6,76,65,58,30.09,29.97,13,0,13,0.05
2013-2-17,21.4,10.7,4.7,12.3,3.1,-3.3,80,70,50,30.13,29.96,12,0,12,0.00
2013-2-18,38.6,27.3,0.0,23.0,12.2,0.0,100,50,52,30.03,29.28,12,1,12,0.00
2013-2-19,39.4,26.9,-16.9,39.4,22.0,-99.9,100,81,53,30.31,29.08,30,8,30,0.34
2013-2-20,48.8,14.5,0.0,34.0,5.9,-11.2,100,68,60,30.59,29.05,28,6,33,0.09
2013-2-21,20.5,17.6,14.6,13.4,8.4,4.7,78,67,55,30.36,30.16,12,3,12,0.00
2013-2-22,34.3,26.4,15.7,25.2,19.9,5.7,84,76,64,30.22,29.72,11,1,11,0.08
2013-2-23,36.8,32.5,0.0,29.2,24.8,-7.2,82,73,67,29.75,29.67,11,1,11,0.07
2013-2-24,37.0,31.5,26.7,29.3,24.9,18.5,86,76,69,30.06,29.73,7,0,7,0.03
2013-2-25,36.3,31.7,28.5,28.8,25.1,22.4,87,77,59,30.11,30.03,7,1,7,0.00
2013-2-26,36.5,31.2,26.0,25.6,22.3,17.7,82,69,58,30.09,29.68,19,4,19,0.00
2013-2-27,33.8,32.2,30.9,31.9,27.6,23.6,96,83,73,29.69,29.57,22,6,22,0.01
2013-2-28,32.2,29.4,23.6,31.6,22.7,12.0,98,77,60,30.02,29.63,22,6,22,0.02
2013-3-1,26.0,20.4,0.0,14.1,10.3,-8.3,72,65,55,30.16,30.02,19,4,20,0.00
2013-3-2,24.7,19.0,13.8,15.6,10.0,4.8,74,68,62,30.14,30.04,17,2,17,0.00
2013-3-3,27.2,18.0,5.4,15.6,9.5,-0.1,79,69,54,30.05,29.98,14,1,14,0.00
2013-3-4,27.0,17.4,2.6,14.2,7.7,-3.8,79,66,43,30.12,30.03,8,0,8,0.00
2013-3-5,31.2,19.1,3.0,18.0,10.5,-3.4,81,69,54,30.11,29.96,18,2,18,0.00
2013-3-6,37.5,31.2,25.0,27.9,23.5,16.3,86,73,62,30.20,30.00,14,2,14,0.01
2013-3-7,30.1,26.4,0.0,20.7,17.3,-9.0,77,68,52,30.37,30.20,13,1,14,0.00
2013-3-8,39.1,26.1,11.4,26.1,17.5,6.7,83,71,43,30.45,30.28,10,0,10,0.00
2013-3-9,43.5,26.5,0.0,25.6,12.8,0.0,85,43,41,30.29,29.85,13,1,16,0.30
2013-3-10,40.8,37.0,35.2,40.5,32.6,21.0,100,86,55,29.85,29.63,10,2,10,0.57
2013-3-11,45.4,38.2,31.9,45.4,37.9,31.0,100,99,95,29.72,29.32,18,0,18,0.45
2013-3-12,31.9,28.5,0.0,31.6,15.3,-5.8,100,53,76,29.78,29.42,5,0,5,0.98
2013-3-13,29.3,24.3,0.0,20.3,15.7,-5.8,82,70,55,30.14,29.72,20,3,20,0.00
2013-3-14,35.3,28.6,20.8,21.8,18.0,14.1,78,64,49,30.16,29.86,19,1,19,0.01
2013-3-15,34.0,28.0,0.0,29.2,17.8,0.0,90,57,54,29.89,29.77,24,3,24,0.05
2013-3-16,25.3,19.8,11.6,13.9,8.5,0.0,82,58,51,29.99,29.78,17,1,17,0.03
2013-3-17,25.3,18.3,0.0,17.5,5.6,-17.2,79,58,35,30.27,29.96,19,2,19,0.02
2013-3-18,39.3,17.6,7.6,28.4,9.0,1.1,85,70,44,30.12,29.36,12,0,12,0.09
2013-3-19,32.4,25.7,0.0,28.4,19.7,0.0,89,74,83,29.75,29.32,21,8,21,0.21
2013-3-20,26.6,23.8,21.4,22.1,12.3,0.0,87,61,55,29.81,29.69,19,4,19,0.10
2013-3-21,30.4,27.2,0.0,23.0,18.9,-8.6,85,71,59,29.88,29.69,17,2,17,0.03
2013-3-22,36.2,30.2,0.0,27.9,22.4,-5.5,83,72,65,29.98,29.82,10,1,7,0.00
2013-3-23,38.8,32.9,28.5,30.8,21.0,0.0,81,62,52,30.03,29.93,9,0,7,0.00
2013-3-24,34.7,29.3,0.0,25.9,21.8,-4.4,81,74,50,30.03,29.73,13,1,10,0.00
2013-3-25,38.2,32.1,24.2,26.9,23.1,12.3,79,69,55,29.93,29.75,21,4,0,0.00
2013-3-26,42.5,35.1,30.9,33.0,27.2,20.7,89,74,49,30.07,29.92,19,1,0,0.00
2013-3-27,43.3,35.0,29.1,33.0,27.6,24.0,91,75,58,30.14,30.01,17,1,0,0.01
2013-3-28,44.6,35.0,25.6,32.3,25.2,-3.7,88,69,46,30.20,30.12,12,1,3,0.00
2013-3-29,46.5,32.3,18.1,39.2,20.0,11.6,92,65,30,30.22,30.11,10,0,0,0.00
2013-3-30,47.3,32.3,0.0,37.4,19.0,-5.8,90,61,34,30.15,29.69,18,2,17,0.11
2013-3-31,42.8,36.6,27.3,39.8,33.0,16.1,98,87,61,29.69,29.49,22,6,11,0.13
2013-4-1,28.7,25.9,24.1,20.4,13.7,5.9,84,60,44,30.01,29.69,26,3,26,0.16
2013-4-2,34.4,27.3,0.0,18.1,11.8,-15.4,63,52,43,30.18,29.97,17,2,17,0.00
2013-4-3,35.8,29.5,23.2,16.8,12.5,-12.0,64,49,37,30.36,30.17,16,1,16,0.00
2013-4-4,46.4,35.1,25.1,35.1,22.4,11.0,92,62,38,30.18,29.85,24,6,0,0.10
2013-4-5,36.5,31.3,25.0,27.0,18.3,12.9,77,59,41,30.17,29.93,19,1,19,0.00
2013-4-6,40.1,28.2,0.0,29.7,19.6,0.0,77,69,59,30.14,29.51,17,0,10,0.12
2013-4-7,46.4,38.4,31.2,45.6,32.6,-99.9,98,81,53,29.96,29.32,22,4,0,0.23
2013-4-8,40.8,30.3,26.3,38.2,25.6,19.2,100,83,70,29.97,29.69,11,0,0,0.23
2013-4-9,40.6,36.2,32.2,40.5,35.5,-0.2,100,97,84,30.04,29.89,19,2,5,0.17
2013-4-10,39.9,35.3,31.0,33.6,31.6,26.6,100,87,66,30.07,29.98,14,3,14,0.13
2013-4-11,35.2,31.9,29.0,28.2,21.9,-4.2,86,67,48,30.04,29.72,26,4,21,0.28
2013-4-12,36.8,32.3,28.5,32.2,27.9,23.7,87,84,80,29.71,29.52,19,2,19,0.25
2013-4-13,38.3,34.8,0.0,33.1,29.6,-3.7,86,81,62,29.83,29.60,22,1,5,0.04
2013-4-14,44.1,37.7,31.9,29.7,23.5,-99.9,75,60,46,29.98,29.82,7,-7,10,0.00
2013-4-15,52.9,41.5,0.0,51.6,30.2,-99.9,100,69,53,29.84,29.62,20,4,18,0.10
2013-4-16,48.3,39.2,0.0,36.5,20.9,-99.9,77,55,50,30.26,29.75,15,2,17,0.00
2013-4-17,49.1,37.3,0.0,33.9,27.1,-99.9,92,69,46,30.32,30.01,11,1,16,0.01
2013-4-18,50.5,39.9,0.0,50.2,38.7,-2.7,100,95,86,30.04,29.25,11,0,11,0.46
2013-4-19,55.9,39.9,0.0,55.9,33.4,0.0,100,78,54,29.59,29.11,39,11,8,0.06
2013-4-20,33.7,25.4,-15.0,20.3,13.2,-99.9,83,57,47,30.39,29.57,22,2,13,0.01
2013-4-21,48.3,32.8,14.9,28.3,16.1,10.1,86,56,27,30.52,30.27,10,0,2,0.00
2013-4-22,63.2,46.8,0.0,35.0,28.9,-15.9,86,51,28,30.30,30.03,22,3,22,0.00
2013-4-23,56.9,41.0,33.5,45.3,33.2,29.1,100,76,52,30.05,29.77,20,2,13,0.55
2013-4-24,44.9,35.8,28.5,35.6,31.5,18.6,98,86,40,29.92,29.83,14,1,14,0.00
2013-4-25,47.4,38.7,0.0,34.7,29.1,-99.9,89,70,47,30.19,29.80,21,4,21,0.01
2013-4-26,63.4,38.4,0.0,40.8,27.8,-2.9,89,67,31,30.25,30.03,24,3,10,0.01
2013-4-27,69.8,53.6,50.4,51.9,46.2,38.3,86,76,50,30.11,30.03,19,7,14,0.08
2013-5-1,72.7,62.9,0.0,63.2,51.3,0.0,90,66,54,30.17,29.91,16,2,0,0.00
2013-5-2,60.9,42.6,0.0,40.0,12.5,0.0,91,30,61,30.20,30.07,12,3,0,0.00
2013-5-3,71.8,34.8,0.0,54.4,29.6,-6.6,91,68,47,30.12,29.93,8,1,6,0.00
2013-5-4,75.6,61.3,41.9,55.0,43.5,30.2,96,56,32,30.01,29.92,11,0,0,0.00
2013-5-5,77.6,60.7,42.1,63.3,37.3,19.2,81,45,25,30.05,29.92,14,1,0,0.00
2013-5-6,75.1,58.4,37.0,46.2,36.2,0.0,94,49,29,30.01,29.89,10,1,0,0.00
2013-5-7,76.7,59.3,40.5,71.0,37.8,0.0,85,51,21,29.99,29.87,12,1,0,0.00
2013-5-8,78.5,61.6,0.0,49.4,26.1,-28.2,81,31,21,29.94,29.83,7,0,7,0.00
2013-5-9,76.3,54.6,41.9,66.4,40.7,32.3,95,63,31,29.94,29.81,17,3,0,0.02
2013-5-10,42.6,40.3,38.0,39.6,36.7,30.2,100,88,69,29.94,29.83,14,3,0,0.68
2013-5-11,43.9,38.2,0.0,43.1,36.9,-1.3,100,95,89,29.83,29.60,12,0,8,0.25
2013-5-12,40.3,36.5,33.8,35.0,27.4,0.0,99,71,56,30.00,29.67,24,4,19,0.08
2013-5-13,49.5,37.7,0.0,37.0,25.9,-6.9,82,65,27,30.07,29.92,11,1,9,0.00
2013-5-14,64.0,47.5,0.0,51.3,15.4,0.0,64,28,54,29.93,29.47,10,1,18,0.00
2013-5-15,71.6,40.7,0.0,55.6,16.5,-99.9,83,38,33,29.68,29.32,16,-13,16,0.00
2013-5-16,60.4,49.4,0.0,52.5,39.8,0.0,75,67,63,29.99,29.64,9,1,0,0.00
2013-5-17,66.9,52.2,36.3,53.4,40.9,-13.1,98,68,46,30.10,29.98,7,0,0,0.00
2013-5-18,72.0,58.7,47.7,52.2,42.0,0.0,82,56,41,30.09,29.90,8,0,0,0.00
2013-5-19,83.2,67.6,0.0,67.9,43.0,0.0,72,46,46,29.91,29.73,12,0,0,0.00
2013-5-20,87.2,43.8,0.0,84.6,39.3,0.0,98,50,57,29.75,29.54,12,0,0,0.00
2013-5-21,68.8,61.3,55.0,68.8,60.8,49.3,100,98,81,29.65,29.54,12,0,0,0.38
2013-5-22,62.0,41.9,0.0,61.8,34.3,-99.9,100,60,100,29.64,29.55,11,-4,6,0.19
2013-5-23,53.2,47.1,0.0,47.9,22.1,0.0,100,49,62,30.18,29.64,20,8,19,0.48
2013-5-24,53.3,42.5,33.7,45.0,31.6,25.1,96,67,43,30.33,30.18,11,1,11,0.00
2013-5-25,61.8,40.8,0.0,57.6,26.0,0.0,100,56,33,30.35,30.22,7,0,11,0.00
2013-5-26,65.2,49.9,30.3,99.9,42.4,14.0,100,75,27,30.31,30.09,12,1,0,0.00
2013-5-27,74.0,33.6,0.0,61.1,22.0,0.0,92,33,31,30.15,29.88,5,0,1,0.00
2013-5-28,60.2,49.4,-14.5,51.8,37.4,-20.6,76,66,35,29.93,29.63,30,1,0,0.00
2013-5-29,72.5,58.1,48.8,68.1,55.5,43.2,100,92,76,29.83,29.63,7,1,0,0.11
2013-5-30,87.2,45.5,0.0,83.6,34.7,-99.9,100,55,54,29.82,29.72,17,-54,5,0.00
2013-5-31,73.9,54.8,0.0,73.9,18.8,-99.9,100,43,100,29.76,29.66,10,-90,10,0.00
2013-6-12,79.8,65.6,0.0,56.4,45.2,-99.9,74,48,34,29.80,-32.77,8,-24,9,0.00
2013-6-13,69.5,60.2,52.8,57.9,52.6,48.0,89,76,62,30.00,29.70,22,3,13,0.00
2013-6-14,72.0,57.9,43.3,48.9,42.1,23.1,97,62,18,30.11,30.00,12,0,13,0.00
2013-6-15,74.1,53.4,41.0,59.8,45.9,39.1,96,79,41,30.02,29.80,17,0,13,0.01
2013-6-16,76.8,60.0,53.9,64.8,57.7,51.4,98,93,56,29.83,29.70,20,1,10,0.57
2013-6-17,67.9,58.2,51.1,58.3,53.7,49.2,98,86,67,30.00,29.78,14,1,0,0.00
2013-6-18,70.3,58.0,43.1,53.8,46.3,37.6,98,70,34,30.10,29.99,15,1,0,0.00
2013-6-19,74.9,57.9,40.0,53.2,44.8,39.0,98,67,32,30.17,30.08,15,1,0,0.00
2013-6-20,84.7,65.1,45.0,59.8,50.3,43.0,97,64,35,30.14,30.07,16,2,0,0.00
2013-6-21,85.6,69.3,54.7,66.8,60.0,51.9,96,74,49,30.13,29.88,24,2,0,0.00
2013-6-22,79.0,63.7,58.6,65.7,59.5,56.7,97,87,62,30.04,29.92,14,0,0,0.00
2013-6-23,90.2,73.3,58.9,71.2,65.9,57.5,98,80,52,29.99,29.81,19,3,0,0.00
2013-6-24,85.6,76.4,68.4,71.2,67.7,64.2,90,75,58,29.92,29.79,19,3,0,0.00
2013-6-25,80.2,71.4,62.6,68.8,64.6,60.2,93,80,61,29.82,29.77,17,2,0,0.00
2013-6-26,87.7,71.8,57.3,68.6,63.3,56.5,98,78,45,29.79,29.69,15,0,0,0.00
2013-6-27,85.2,68.8,59.2,67.6,63.0,57.5,97,83,48,29.77,29.63,11,0,0,0.14
2013-6-28,76.0,64.8,56.3,66.3,60.6,55.5,98,87,68,29.63,29.55,15,1,0,0.01
2013-6-29,73.6,63.8,60.3,62.4,59.6,55.3,95,87,62,29.78,29.58,18,1,10,0.00
2013-6-30,76.9,66.1,53.4,55.6,50.5,41.0,90,61,29,30.01,29.78,13,1,19,0.00
2013-7-1,78.3,58.8,47.2,57.6,49.7,42.8,97,75,37,30.14,30.01,16,1,0,0.00
2013-7-2,73.5,59.5,42.0,54.4,47.4,40.7,98,68,37,30.14,30.06,12,1,0,0.00
2013-7-3,78.0,66.3,55.1,59.8,53.9,49.0,91,67,40,30.09,29.98,11,0,0,0.00
2013-7-4,80.9,63.9,59.5,65.7,60.1,56.8,98,88,54,30.05,29.97,15,0,15,0.00
2013-7-5,88.7,73.0,58.9,66.6,61.6,56.2,95,71,42,30.03,29.94,15,1,15,0.00
2013-7-6,88.3,75.1,62.7,66.1,61.2,55.9,90,64,40,30.00,29.91,16,2,16,0.00
2013-7-7,89.2,65.5,58.4,69.6,61.8,56.6,98,89,51,29.94,29.86,13,0,4,0.03
2013-7-8,75.0,68.0,66.1,72.3,66.9,65.0,98,96,86,29.95,29.87,11,0,1,1.26
2013-7-9,82.0,69.3,66.2,72.0,67.3,65.3,99,94,68,29.95,29.68,9,0,0,0.09
2013-7-10,73.4,67.6,56.0,69.8,62.8,54.5,98,85,62,29.92,29.65,20,2,0,0.76
2013-7-11,74.6,63.2,51.5,60.7,55.0,50.8,99,77,46,30.08,29.92,14,1,0,0.00
2013-7-12,83.3,60.8,49.2,62.1,53.3,48.4,99,81,34,30.16,30.06,10,0,14,0.00
2013-7-13,85.3,73.7,55.7,65.6,60.4,54.4,97,67,42,30.16,30.07,14,1,14,0.00
2013-7-14,87.9,72.9,56.7,67.8,62.4,55.8,98,73,46,30.22,30.16,10,0,0,0.00
2013-7-15,92.4,77.9,62.1,69.6,65.9,60.7,98,70,40,30.26,30.18,7,0,0,0.00
2013-7-16,92.9,79.4,63.5,74.4,68.8,62.3,99,73,46,30.23,30.13,12,1,12,0.00
2013-7-17,93.4,82.4,70.3,74.6,72.1,67.7,92,73,49,30.17,30.05,22,2,17,0.00
2013-7-18,92.1,79.8,69.8,76.9,72.3,67.7,98,79,52,30.07,29.75,27,1,27,0.00
2013-7-19,86.6,78.9,62.5,74.8,69.9,60.2,95,74,61,29.75,29.59,24,4,25,0.37
2013-7-20,72.1,66.6,49.1,61.4,52.9,46.7,97,63,44,29.98,29.70,15,1,18,0.00
2013-7-21,74.7,60.3,42.7,59.9,52.2,41.9,98,77,49,30.02,29.91,9,0,0,0.00
2013-7-22,86.3,73.4,58.3,71.2,63.9,56.3,96,73,54,29.91,29.61,18,1,0,0.00
2013-7-23,75.8,62.5,56.9,67.0,55.0,46.3,97,77,62,29.91,29.58,27,3,0,0.45
2013-7-24,73.1,60.7,43.1,55.5,49.7,41.8,98,70,46,30.05,29.91,11,0,0,0.00
2013-7-25,80.5,55.3,46.4,61.4,49.9,45.3,98,85,44,30.05,29.95,14,0,0,0.00
2013-7-26,78.6,64.0,56.5,66.8,59.5,54.1,98,86,61,29.98,29.79,27,2,0,1.93
2013-7-27,60.5,57.2,55.0,59.9,56.4,54.2,98,97,95,29.82,29.79,11,0,0,0.00
2013-7-28,66.2,58.0,53.4,55.8,54.0,51.4,98,87,63,29.86,29.73,20,1,20,0.17
2013-7-29,69.7,57.0,53.1,60.3,55.0,52.3,99,94,66,30.14,29.86,13,0,6,0.06
2013-7-30,76.5,61.0,48.2,63.3,56.2,47.4,99,86,53,30.19,30.07,8,0,8,0.05
2013-7-31,76.8,65.9,54.9,66.6,60.7,53.5,99,85,61,30.07,29.85,16,2,16,0.75
2013-8-1,74.0,64.1,55.4,63.5,59.0,54.8,99,85,55,29.86,29.82,11,1,0,0.01
2013-8-2,75.1,64.1,53.9,64.8,58.7,53.1,99,84,54,29.89,29.77,11,1,18,0.03
2013-8-3,70.7,61.1,50.0,59.1,54.4,49.1,98,80,58,30.07,29.89,17,1,17,0.00
2013-8-4,71.5,62.3,48.9,57.0,52.2,47.2,97,72,46,30.18,30.06,12,0,0,0.00
2013-8-5,73.5,59.7,45.5,57.9,52.3,44.7,99,79,47,30.08,29.86,12,0,0,0.00
2013-8-6,78.5,68.6,58.1,68.2,62.2,55.0,95,81,66,29.86,29.75,16,1,0,0.00
2013-8-7,72.8,66.4,56.5,66.1,62.4,54.2,98,87,71,29.94,29.61,34,1,0,0.63
2013-8-8,75.4,61.5,45.1,60.5,52.6,44.3,99,76,42,30.02,29.94,9,0,0,0.00
2013-8-9,76.0,62.6,48.5,63.3,54.9,47.7,99,78,54,30.01,29.87,17,2,21,0.00
2013-8-10,73.2,60.7,45.5,59.8,52.4,44.7,98,77,49,30.12,30.01,13,0,12,0.00
2013-8-11,81.3,64.6,51.2,63.8,56.9,50.2,99,79,43,30.08,29.99,13,0,0,0.00
2013-8-12,77.9,64.7,55.5,64.5,58.9,51.0,99,83,56,30.00,29.83,20,2,0,0.00
2013-8-13,64.5,57.6,53.5,51.1,47.1,44.4,79,68,52,30.09,29.92,21,3,0,0.00
2013-8-14,68.9,58.1,49.0,55.6,51.1,47.3,98,79,51,30.15,30.08,14,1,14,0.00
2013-8-15,76.0,62.2,47.8,60.1,53.2,46.7,98,76,37,30.09,30.03,13,1,13,0.00
2013-8-16,82.0,64.1,47.1,62.0,54.3,46.3,99,75,37,30.16,30.07,10,0,10,0.00
2013-8-17,83.0,65.2,48.6,62.3,54.1,47.8,99,73,38,30.22,30.13,13,1,13,0.00
2013-8-18,82.5,66.0,51.0,61.2,55.5,49.9,98,73,41,30.18,30.04,14,1,14,0.00
2013-8-19,81.5,67.9,53.8,65.3,58.9,52.7,98,76,49,30.05,29.94,19,2,19,0.00
2013-8-20,87.1,74.2,65.1,67.8,64.1,60.9,89,72,48,30.01,29.93,18,3,18,0.00
2013-8-21,89.5,76.7,65.7,70.8,66.4,62.0,95,72,51,29.96,29.82,26,4,26,0.56
2013-8-22,78.0,68.3,56.4,69.4,62.5,54.9,99,83,49,30.08,29.85,15,0,15,0.10
2013-8-23,77.0,62.6,48.1,62.0,55.7,47.4,99,80,48,30.18,30.08,12,0,12,0.01
2013-8-24,81.4,66.3,52.9,63.3,57.5,51.5,98,77,40,30.25,30.16,10,0,11,0.00
2013-8-25,89.6,74.0,55.7,71.5,63.5,54.3,97,71,53,30.16,29.94,28,5,28,0.00
2013-8-26,86.2,76.0,64.5,73.0,68.0,63.1,97,77,52,30.00,29.89,21,3,21,0.15
2013-8-27,77.8,68.3,63.7,72.8,66.8,62.5,98,95,83,29.92,29.80,9,0,11,0.20
2013-8-28,82.8,70.4,59.5,72.7,66.5,58.9,99,88,66,30.00,29.81,8,0,0,0.01
2013-8-29,89.6,73.3,58.8,71.6,66.1,58.2,99,81,49,30.04,29.90,9,0,0,0.00
2013-8-30,77.2,71.2,66.7,72.7,68.1,64.8,98,90,83,29.90,29.71,22,3,17,0.80
2013-8-31,78.2,68.0,58.1,67.1,63.1,57.3,99,85,64,29.85,29.76,9,0,9,0.00
2013-9-1,76.3,64.4,57.5,68.7,61.8,56.4,98,92,69,29.81,29.65,15,0,0,0.04
2013-9-2,61.1,56.8,54.9,58.0,52.8,50.1,93,87,76,29.91,29.74,18,2,19,0.02
2013-9-3,71.5,65.1,54.7,58.6,55.7,51.9,91,72,56,29.99,29.90,17,2,17,0.01
2013-9-4,67.6,61.5,50.7,61.6,55.6,44.0,98,82,55,30.12,29.88,16,1,16,0.00
2013-9-5,64.4,55.8,44.1,49.3,45.4,42.0,96,70,49,30.29,30.12,14,0,14,0.00
2013-9-6,77.3,61.3,43.5,61.3,52.9,42.4,98,76,53,30.21,29.92,17,2,0,0.00
2013-9-7,76.9,69.4,64.7,72.2,65.9,56.4,98,89,68,29.96,29.81,18,2,0,0.76
2013-9-8,72.7,62.4,49.8,63.2,55.2,48.7,98,78,51,30.12,29.96,17,1,0,0.00
2013-9-9,75.2,69.9,63.5,69.8,65.5,57.4,97,86,75,29.93,29.67,12,0,0,0.04
2013-9-10,87.4,77.9,66.7,73.4,70.0,65.4,96,78,61,29.91,29.67,18,2,0,0.49
2013-9-11,77.5,69.0,64.2,69.4,65.7,63.6,98,90,73,29.92,29.84,18,2,0,0.75
2013-9-12,67.3,62.2,50.8,64.2,57.3,43.9,97,84,60,30.03,29.85,25,1,0,0.03
2013-9-13,57.1,49.7,39.0,48.8,42.6,37.8,96,77,59,30.16,30.03,24,2,0,0.04
2013-9-14,66.9,53.0,36.5,54.5,46.7,35.7,98,81,60,30.13,29.98,20,2,0,0.01
2013-9-15,59.9,57.6,50.8,58.5,55.0,46.5,98,91,80,30.17,29.95,18,1,0,0.55
2013-9-16,56.3,47.7,39.0,46.9,41.2,37.5,96,79,59,30.40,30.17,18,0,0,0.00
2013-9-17,68.0,50.8,37.6,50.6,43.7,36.5,98,80,46,30.39,30.15,11,0,0,0.00
2013-9-18,71.6,58.4,42.2,60.6,52.1,41.1,98,81,62,30.15,29.90,9,0,13,0.00
2013-9-19,80.9,69.8,62.2,71.5,65.0,57.5,97,85,71,29.91,29.70,23,2,15,1.69
2013-9-20,69.4,67.4,59.1,67.2,65.2,55.1,97,92,87,29.71,29.61,19,2,19,0.10
2013-9-21,58.9,53.8,48.1,55.0,48.4,39.7,96,82,66,29.89,29.67,20,1,20,0.02
2013-9-22,54.0,48.9,46.1,45.4,41.7,39.0,91,76,62,30.09,29.89,15,1,15,0.00
2013-9-23,62.0,46.8,32.2,47.3,40.6,31.5,98,81,52,30.19,30.09,8,0,4,0.00
2013-9-24,65.4,49.9,37.0,52.7,44.9,36.3,99,85,57,30.15,29.99,11,0,0,0.00
2013-9-25,70.2,53.0,39.6,55.2,47.0,38.8,99,83,45,30.03,29.97,8,0,0,0.01
2013-9-26,71.5,54.2,39.7,57.3,48.1,38.9,99,82,40,30.11,30.00,9,0,0,0.00
2013-9-27,80.4,58.4,42.2,60.0,50.6,41.5,99,79,42,30.19,30.09,11,0,0,0.01
2013-9-28,78.0,58.5,51.3,58.0,53.2,49.5,96,84,45,30.11,29.79,22,1,0,0.00
2013-9-29,70.3,57.7,41.3,61.3,50.3,40.2,97,78,49,29.99,29.78,19,1,0,0.50
2013-9-30,69.8,53.5,39.4,53.5,46.8,38.6,99,81,49,29.98,29.82,15,0,0,0.01
2013-10-1,78.5,64.5,52.8,64.3,57.5,49.3,90,79,56,29.85,29.68,33,5,33,0.00
2013-10-2,70.3,62.0,49.3,58.0,50.9,47.7,95,68,45,30.03,29.80,13,1,20,0.00
2013-10-3,67.1,55.9,46.9,58.2,51.6,42.0,97,86,67,30.03,29.88,8,0,0,0.56
2013-10-4,58.8,56.8,55.4,58.0,55.7,54.1,98,96,93,30.06,29.87,19,2,0,0.41
2013-10-5,60.2,55.6,54.3,57.0,54.3,53.4,97,95,88,30.06,29.83,17,3,17,0.88
2013-10-6,65.9,57.5,49.7,65.3,56.6,48.7,99,97,91,29.83,29.58,17,1,17,0.34
2013-10-7,57.6,51.3,46.0,52.9,47.7,41.6,98,88,71,30.03,29.52,22,1,22,0.56
2013-10-8,69.8,52.4,37.6,54.7,45.4,36.8,99,79,47,30.18,30.03,17,2,17,0.00
2013-10-9,73.9,58.3,47.8,56.7,50.4,46.4,97,76,48,30.20,30.12,20,2,17,0.00
2013-10-10,73.2,49.7,41.3,53.3,45.2,40.6,99,87,43,30.19,30.09,12,0,7,0.00
2013-10-11,57.1,49.9,47.6,51.0,46.7,44.6,93,89,80,30.02,30.01,0,0,0,0.00
2013-10-12,78.5,60.8,44.5,60.1,51.5,41.9,92,74,42,30.02,29.88,14,2,23,0.05
2013-10-13,60.1,54.4,39.6,52.6,46.7,37.5,92,75,66,30.37,29.99,13,1,18,0.01
2013-10-14,58.1,43.9,32.2,47.9,38.1,31.5,98,83,51,30.44,30.27,11,0,11,0.00
2013-10-15,59.3,48.7,37.0,56.7,46.0,35.7,98,91,69,30.27,29.68,12,0,12,0.31
2013-10-16,57.7,51.9,48.4,56.9,49.2,42.5,98,90,80,29.83,29.64,28,3,28,0.10
2013-10-17,52.4,47.2,38.9,44.4,41.6,37.3,98,81,65,29.84,29.71,9,0,7,0.00
2013-10-18,54.2,45.1,35.1,49.8,43.2,34.0,99,93,77,29.78,29.72,17,0,0,0.40
2013-10-19,51.2,43.9,35.1,44.5,40.8,33.5,98,90,61,29.78,29.66,24,0,0,0.98
2013-10-20,51.9,42.9,35.2,44.1,39.3,34.4,99,88,60,29.80,29.69,18,1,0,0.28
2013-10-21,48.4,43.2,34.6,47.7,40.0,30.0,98,88,75,29.74,29.59,25,4,0,0.59
2013-10-22,45.1,39.7,34.9,40.0,35.2,27.6,94,84,67,29.86,29.64,24,4,0,0.21
2013-10-23,42.5,38.2,34.4,35.5,31.9,28.6,92,78,60,29.86,29.81,16,1,0,0.29
2013-10-24,43.7,39.8,37.9,38.5,35.3,30.6,95,84,70,30.12,29.85,19,2,0,0.12
2013-10-25,44.7,40.0,37.6,39.8,34.0,29.8,91,79,59,30.21,29.77,37,3,0,0.19
2013-10-26,50.3,43.4,38.3,42.7,37.7,32.8,93,81,69,29.93,29.55,35,6,0,0.25
2013-10-27,47.4,42.8,37.5,40.6,35.1,30.5,90,74,60,29.96,29.83,22,3,0,0.02
2013-10-28,45.5,36.2,27.2,37.7,28.9,24.2,91,75,59,30.47,29.96,25,3,0,0.00
2013-10-29,39.9,33.1,23.8,33.3,27.9,22.2,95,82,60,30.48,30.22,6,0,0,0.00
2013-10-30,56.4,44.7,36.1,47.6,39.8,32.6,93,83,62,30.22,29.82,4,0,9,0.02
2013-10-31,60.0,54.5,50.3,58.9,53.5,47.5,98,96,85,29.82,28.99,14,1,11,1.01
2013-11-1,53.9,46.7,41.8,53.2,45.0,37.8,98,94,86,29.64,28.94,27,3,27,0.73
2013-11-2,42.0,38.7,34.2,39.3,34.5,30.4,95,85,75,30.14,29.64,14,2,14,0.02
2013-11-3,46.4,37.4,32.1,32.3,30.9,29.0,92,78,53,30.36,30.13,12,0,12,0.00
2013-11-4,51.0,42.4,35.3,34.6,31.0,27.0,85,66,45,30.38,30.12,24,3,0,0.00
2013-11-5,56.7,50.1,46.2,48.8,44.6,33.1,94,82,60,30.24,29.96,17,1,0,0.09
2013-11-6,52.7,45.3,37.5,52.2,43.8,30.6,98,94,76,29.96,29.62,28,5,19,1.16
2013-11-7,39.2,37.8,36.7,32.6,30.6,28.4,82,75,66,30.05,29.95,21,2,21,0.01
2013-11-8,41.4,37.5,32.0,32.0,28.9,25.1,87,71,54,30.19,30.05,17,1,19,0.01
2013-11-9,45.3,40.4,34.6,44.2,37.0,29.3,96,88,75,30.05,29.62,27,4,27,0.60
2013-11-10,42.0,40.0,36.1,36.7,33.7,29.5,91,78,68,30.17,29.77,27,5,27,0.06
2013-11-11,43.4,32.4,27.4,36.7,27.6,18.2,96,83,63,30.37,29.94,30,5,25,0.60
2013-11-12,31.9,28.5,25.6,23.5,20.6,17.9,88,72,59,30.55,30.37,23,3,23,0.04
2013-11-13,41.6,33.5,30.3,30.8,23.9,18.0,86,68,58,30.43,29.89,38,5,38,0.00
2013-11-14,45.9,42.0,39.3,37.5,33.4,29.6,87,72,63,29.92,29.78,33,8,33,0.02
2013-11-15,53.1,43.2,33.4,41.3,37.7,31.7,97,82,61,29.92,29.81,20,4,20,0.00
2013-11-16,54.7,46.0,36.9,51.7,42.3,34.5,94,87,79,29.93,29.49,24,4,15,0.18
2013-11-17,58.9,53.3,43.5,57.5,52.4,41.0,98,97,91,29.50,28.97,32,2,32,2.70
2013-11-18,43.5,36.7,32.4,41.2,29.1,23.7,92,74,64,30.11,29.23,37,7,37,0.00
2013-11-19,35.3,30.7,24.3,25.5,23.6,21.5,94,75,64,30.36,30.10,20,0,21,0.01
2013-11-20,43.9,35.9,30.6,30.1,26.9,24.3,79,70,52,30.33,30.17,20,1,0,0.00
2013-11-21,42.6,39.5,36.0,40.0,35.9,29.2,96,87,70,30.18,30.13,7,0,0,0.04
2013-11-22,40.0,33.3,31.3,38.8,29.6,21.1,96,86,60,30.34,30.15,23,2,0,0.16
2013-11-23,33.2,21.5,16.5,24.0,13.6,6.3,88,72,55,30.52,30.22,29,7,0,0.09
2013-11-24,26.1,21.4,16.8,20.5,14.9,9.3,88,76,69,30.55,30.13,29,5,34,0.12
2013-11-25,36.9,30.8,26.2,32.2,25.3,20.6,95,80,70,30.14,29.84,33,12,37,0.41
2013-11-26,37.7,31.0,22.4,32.1,26.2,16.2,93,82,74,30.05,29.88,22,2,27,0.10
2013-11-27,24.5,22.7,21.1,18.9,15.4,12.4,88,74,64,30.18,30.00,24,4,27,0.02
2013-11-28,25.4,21.0,17.6,20.2,16.1,11.4,89,81,69,30.44,30.18,10,0,27,0.02
2013-11-29,30.6,21.8,8.3,24.8,16.9,3.3,91,81,73,30.62,30.44,10,0,0,0.00
2013-11-30,38.1,32.3,24.8,34.7,27.8,19.8,89,83,79,30.46,30.01,24,4,0,0.00
2013-12-1,35.0,32.6,29.9,30.6,28.4,26.5,92,84,81,30.08,30.00,6,0,6,0.00
2013-12-2,32.0,30.4,29.3,27.9,26.0,23.5,92,84,77,30.00,29.88,9,0,9,0.00
2013-12-3,30.0,27.1,24.9,28.7,23.7,20.8,95,87,79,29.97,29.88,15,1,15,0.00
2013-12-4,40.1,33.3,30.0,39.4,32.2,28.7,98,96,94,29.90,29.49,19,2,19,0.20
2013-12-5,47.7,32.0,20.9,46.3,26.9,14.8,98,81,72,30.08,29.38,32,11,32,0.01
2013-12-6,21.8,20.6,19.4,16.1,13.6,11.1,83,74,65,30.36,30.08,20,2,20,0.00
2013-12-7,19.9,18.2,17.1,14.4,10.8,7.7,83,72,66,30.55,30.36,19,4,19,0.00
2013-12-8,20.5,18.1,16.5,18.0,13.3,9.2,90,82,69,30.53,30.03,12,0,12,0.07
2013-12-9,29.1,22.4,12.5,25.5,18.7,8.3,92,86,78,30.03,29.76,29,6,29,0.15
2013-12-10,17.8,14.6,11.9,15.3,10.8,7.3,91,85,78,30.06,29.76,26,5,26,0.12
2013-12-11,15.8,13.9,12.5,12.2,9.3,6.3,90,82,73,30.34,30.06,25,4,25,0.06
2013-12-12,20.3,16.0,11.5,14.9,11.4,5.7,90,82,71,30.33,30.05,24,5,0,0.07
2013-12-13,20.2,17.0,11.3,14.4,10.6,5.9,84,76,70,30.26,30.06,22,3,0,0.00
2013-12-14,20.7,12.7,7.2,16.8,8.1,1.6,88,81,76,30.42,29.91,12,1,15,0.02
2013-12-15,22.1,19.7,16.1,19.7,16.2,11.8,92,86,78,29.98,29.71,22,2,22,0.09
2013-12-16,17.6,13.9,7.6,14.1,8.8,3.2,89,80,68,30.16,29.93,15,1,15,0.04
2013-12-17,26.4,21.7,15.5,23.0,19.0,12.6,92,89,84,29.93,29.78,15,3,15,0.07
2013-12-18,27.6,23.7,21.5,24.0,18.4,15.8,87,80,76,30.00,29.71,15,2,21,0.00
2013-12-19,32.3,27.0,21.8,27.7,22.7,17.6,93,83,80,30.07,29.70,14,1,14,0.00
2013-12-20,23.1,21.1,18.8,21.0,18.8,16.4,92,91,84,30.03,29.83,14,4,15,0.21
2013-12-21,27.4,25.3,23.0,24.1,22.7,21.0,93,90,84,29.97,29.82,13,0,8,0.00
2013-12-22,24.9,21.7,15.9,22.4,19.4,13.1,93,90,87,30.06,29.76,25,6,24,0.20
2013-12-23,17.1,15.1,11.9,13.9,11.9,8.5,90,87,84,30.35,30.05,6,0,18,0.02
2013-12-24,11.8,6.0,-4.1,8.7,2.5,-7.5,90,85,82,30.50,30.34,6,0,6,0.00
2013-12-25,24.6,18.9,9.8,21.6,16.5,6.7,94,90,86,30.42,30.01,23,4,0,0.11
2013-12-26,26.7,23.5,21.3,23.3,19.7,17.1,92,86,80,30.19,29.97,16,1,0,0.13
2013-12-27,37.1,25.0,21.8,33.3,20.9,17.3,91,84,81,30.23,29.86,25,3,25,0.00
2013-12-28,38.2,36.5,35.5,33.5,32.5,31.5,88,85,83,29.97,29.87,18,2,21,0.00
2013-12-29,39.0,22.6,11.5,35.6,18.0,3.3,94,82,68,30.05,29.66,21,4,26,0.00
2013-12-30,15.2,13.3,0.0,10.2,7.8,0.0,88,77,71,30.20,30.05,17,2,17,0.06
2013-12-31,12.9,11.7,9.5,9.8,7.2,2.0,89,82,70,30.32,30.00,22,3,22,0.05
2014-1-1,11.3,9.7,6.1,6.0,3.4,-0.2,84,75,66,30.46,30.32,14,0,15,0.00
2014-1-2,10.8,6.5,1.7,5.1,1.3,-3.8,83,79,71,30.41,30.30,4,0,10,0.00